046  
ASUS43 KIWX 221410  
RWRIWX  
 
KIWX WEATHER ROUNDUP  
NATIONAL WEATHER SERVICE NORTHERN INDIANA  
900 AM EST MON JAN 22 2018  
 
NOTE: "FAIR" INDICATES FEW OR NO CLOUDS BELOW 12,000 FEET WITH NO  
SIGNIFICANT WEATHER AND/OR S TO VISIBILITY
.  
 
* THESE STATIONS ARE NOT UNDER NWS QUALITY CONTROL. THEY ALSO MAY NOT  
REPORT WEATHER SUCH AS PRECIPITATION OR FOG.
 
 
INZ001>027-221500-  
NORTHERN INDIANA  
 
CITY SKY/WX TMP DP RH WIND PRES REMARKS
 
GARY* LGT RAIN 52 50 93 SE10 29.60F  
VALPARAISO RAIN 50 47 89 S16G22 29.63F FOG  
MICHIGAN CITY* LGT RAIN 48 48 100 S12G18 29.65F  
LAPORTE* RAIN 47 46 97 S13G18 29.67F  
KNOX* CLOUDY 48 46 93 S16 29.69R  
SOUTH BEND LGT RAIN 48 45 89 SE12 29.70S FOG  
ELKHART* DRIZZLE 50 46 87 SW8 29.71S  
GOSHEN MOCLDY 51 45 79 S15 29.69F  
MONTICELLO* RAIN 49 47 95 S13G23 29.68F  
LOGANSPORT* LGT RAIN 46 45 93 S15G24 29.75R  
ROCHESTER* LGT RAIN 52 46 82 S17G28 29.74R  
WARSAW* CLOUDY 52 45 76 S10G17 29.72R  
AUBURN* FAIR N/A N/A N/A SE6 29.76F  
FORT WAYNE CLOUDY 50 45 83 S13 29.76F  
HUNTINGTON* CLOUDY 51 45 79 S12 29.75S  
PERU/GRISSOM LGT RAIN 51 51 100 S22G36 29.75R  
MARION* CLOUDY 51 44 78 S18 29.77R  
 

 
INZ028>050-221500-  
CENTRAL INDIANA  
 
CITY SKY/WX TMP DP RH WIND PRES REMARKS
 
LAFAYETTE HVY RAIN 49 48 97 S14G25 29.68F FOG  
MUNCIE* FAIR 54 44 69 S17G25 29.78S  
INDIANAPOLIS LGT RAIN 49 46 90 S10 29.83R  
 

 
MIZ043>046-050>051-056>058-064>065-071>073-077>080-221500-  
SOUTHWEST LOWER MICHIGAN  
 
CITY SKY/WX TMP DP RH WIND PRES REMARKS
 
BATTLE CREEK CLOUDY 44 44 100 E7 29.72F FOG  
BENTON HARBOR RAIN 50 46 86 S9 29.69R FOG  
COLDWATER* RAIN 48 48 100 SE12G17 29.73F  
HILLSDALE* LGT RAIN 45 43 93 SE9G16 29.77S  
HOLLAND HVY RAIN 39 38 96 E10 29.74R FOG  
GRAND RAPIDS LGT RAIN 37 36 96 E18 29.75F  
KALAMAZOO LGT RAIN 47 45 93 CALM 29.71F  
STURGIS* MOCLDY 50 47 90 S13 29.70F  
THREE RIVERS* CLOUDY 49 49 100 S9 29.70F  
 

 
OHZ001>008-015>018-024>025-221500-  
NORTHWEST OHIO  
 
CITY SKY/WX TMP DP RH WIND PRES REMARKS
 
WAUSEON* MOCLDY 45 45 100 S10 29.80S  
DEFIANCE MOCLDY 50 44 80 S14 29.79F  
FINDLAY CLOUDY 46 41 82 SE10 29.83F  
TOLEDO EXPRESS CLOUDY 47 47 100 SE6 29.81F  
TOLEDO METCALF CLOUDY 48 44 86 S13 29.83F  
LIMA FAIR 50 44 80 S14 29.83S  
 

 
AND FOR LAKE MICHIGAN COASTAL AND OPEN LAKE BUOY OBSERVATIONS  
 
STATION/POSITION TEMP WIND PRES VSBY WAVE
 
AIR SEA DIR/SP/G HT/PER  
(F) (DEG/KT/KT) (MB) (MI) (FT/S)  
CALUMET HARBOR 49 170/ 11/ 17 1001.5F  
MICHIGAN CITY 50 150/ 15/ 18 N/A  
BURNS HARBOR 51 170/ 11/ 22 1003.7F  
SAINT JOSEPH 49 160/ 4/ 8 1005.1  
 

 

 
 
 
CLICK HERE TO GO TO PREVIOUS BULLETINS.

The Nexlab IN Page
The Nexlab OH Page
The Nexlab MI Page Main Text Page